Location: Sternwarte ZA, Rosenfeld-Brittheim
(48.2889°N, 8.6789°E)
Time: 06:01:14
(UTC+01:00)

ISS - Pass Details

Date: 29 November 2020
Orbit: 418 x 421 km, 51.6° (Epoch: 26 November)

Event Time Altitude Azimuth Distance (km) Brightness Sun altitude
Rises 19:00:18 0° 285° (WNW) 2,366 1.2 -23.6°
Reaches altitude 10° 19:02:27 10° 291° (WNW) 1,501 -0.1 -23.9°
Enters shadow 19:04:23 29° 309° (NW) 794 -2.0 -24.2°
